Regional Weather Roundup
Issued by NWS

Home | Current Version | Previous Version | Text Only | Print | Product List | Glossary On
Versions: 1 2 3 4 5 6 7 8 9 10 11 12 13 14 15 16 17 18 19 20 21 22 23 24 25 26 27 28 29 30 31 32 33 34 35 36 37 38 39 40 41 42 43 44 45 46 47 48 49 50
000
ASUS43 KLOT 012006
RWRIL

ILLINOIS REGIONAL WEATHER ROUNDUP
NATIONAL WEATHER SERVICE CHICAGO/ROMEOVILLE IL
300 PM CDT MON SEP 01 2014

NOTE: "FAIR" INDICATES FEW OR NO CLOUDS BELOW 12,000 FEET WITH NO
SIGNIFICANT WEATHER AND/OR OBSTRUCTIONS TO VISIBILITY.

* THESE STATIONS ARE NOT UNDER NWS QUALITY CONTROL. THEY ALSO MAY NOT
  REPORT WEATHER SUCH AS PRECIPITATION OR FOG.

ILZ001-002-007-009-015-016-024-012100-
NORTHWEST ILLINOIS

CITY           SKY/WX    TMP DP  RH WIND       PRES   REMARKS
MOLINE         PTSUNNY   81  66  60 SW14      29.79R HX  83
STERLING*      PTSUNNY   82  66  57 W14G20    29.78S HX  85
SAVANNA*       SUNNY     83  64  52 W12G21    29.76S HX  84
$$

ILZ003-004-008-010-011-017-018-012100-
NORTH CENTRAL ILLINOIS

CITY           SKY/WX    TMP DP  RH WIND       PRES   REMARKS
ROCKFORD       PTSUNNY   82  66  58 SW13      29.76F HX  84
FREEPORT*      MOSUNNY   80  69  68 SW10      29.78F HX  83
ROCHELLE*      PTSUNNY   80  65  61 SW14G24   29.78F HX  82
DE KALB*       PTSUNNY   78  65  63 SW18G24   29.79S HX  80
PERU*          MOSUNNY   82  65  56 SW14      29.80F HX  84
$$

ILZ005-006-012>014-019>023-012100-
NORTHEAST ILLINOIS

CITY           SKY/WX    TMP DP  RH WIND       PRES   REMARKS
CHICAGO-OHARE  PTSUNNY   82  63  52 SW15G24   29.76F HX  83
CHICAGO-MIDWAY PTSUNNY   84  66  54 SW16G23   29.76F HX  86
AURORA         MOSUNNY   82  65  56 W20G25    29.78F HX  84
LANSING*         N/A    N/A N/A N/A MISG        N/A
JOLIET*        MOSUNNY   82  62  51 SW13G18   29.79F HX  83
WAUKEGAN       MOSUNNY   81  65  58 SW16G25   29.73F HX  83
DUPAGE AIRPORT PTSUNNY   82  66  58 SW14      29.77S HX  84
KANKAKEE*      PTSUNNY   82  71  69 SW10      29.81S HX  85
WHEELING       PTSUNNY   82  64  54 SW15G24   29.77S HX  83
MORRIS*        MOSUNNY   82  66  58 W8        29.79S HX  84
ROMEOVILLE*    PTSUNNY   82  65  57 SW15G23   29.78F HX  83
NORTHERLY ISL    N/A     82  61  48 SW17        N/A  HX  83
$$

LMZ740>746-012100-
SOUTHERN LAKE MICHIGAN

STATION/POSITION SKY/WX   TEMP    WIND        PRES    VSBY  WAVE
                          AIR SEA DIR/SP/G                  HT/PER
                          (F)     (DEG/KT/KT) (MB)    (MI)  (FT/S)
SOUTHERN BUOY              73 70  210/ 14/ 16 1006.5S         3/ 5
WAUKEGAN HARBOR            80     240/ 14       N/A
HARRISON CRIB              79     230/ 15/ 22   N/A
BURNHAM HARBOR             82     290/  8/ 16   N/A
CALUMET HARBOR             83     230/  9/ 17 1006.8S
MICHIGAN CITY              76     230/ 15/ 16   N/A
MICHIGAN CITY 6N           76 72  230/  8/ 10   N/A           2/ 3
ST. JOSEPH                 74 72  200/ 10/ 12   N/A           2/ 4
$$

ILZ025>027-034>036-040-047-049-050-058-095>099-012100-
WEST-CENTRAL ILLINOIS

CITY           SKY/WX    TMP DP  RH WIND       PRES   REMARKS
QUINCY         SUNNY     80  66  62 W13       29.86F HX  82
GALESBURG*     PTSUNNY   81  69  66 SW12G17   29.83R HX  84
MACOMB*        PTSUNNY   79  66  65 SW15G22   29.86S HX  81
JACKSONVILLE*  MOSUNNY   83  67  57 SW12G18   29.88F HX  85
PITTSFIELD*    MOSUNNY   82  65  57 W12       29.89F HX  83
$$

ILZ028>032-037-038-041>044-048-051>054-059>061-012100-
CENTRAL ILLINOIS

CITY           SKY/WX    TMP DP  RH WIND       PRES   REMARKS
PONTIAC        MOSUNNY   84  66  54 SW14      29.82S HX  86
DECATUR        PTSUNNY   81  65  58 W12       29.88S HX  83
PEORIA         MOSUNNY   82  65  56 SW16      29.83S HX  84
LACON*         MOSUNNY   81  65  57 SW12      29.80F HX  82
LINCOLN*       PTSUNNY   82  64  54 SW5       29.83F HX  83
SPRINGFIELD    PTSUNNY   83  65  54 W14       29.87F HX  85
TAYLORVILLE    PTSUNNY   81  68  65 W9        29.88F HX  83
$$

ILZ033-039-045-046-055>057-062-063-012100-
EAST-CENTRAL ILLINOIS

CITY           SKY/WX    TMP DP  RH WIND       PRES   REMARKS
CHAMPAIGN      PTSUNNY   81  66  60 W18G24    29.88R HX  83
DANVILLE*      PTSUNNY   82  67  58 SW20G30   29.82S HAZE    HX  85
RANTOUL*       PTSUNNY   81  64  56 SW18      29.87R HX  82
MATTOON        CLOUDY    82  65  56 W13G22    29.89S HX  84
PARIS*         CLOUDY    82  71  68 SW12G20   29.88S HX  86
$$

ILZ079-100>102-012100-
SOUTHWEST ILLINOIS

CITY           SKY/WX    TMP DP  RH WIND       PRES   REMARKS
ALTON          PTSUNNY   81  64  57 W9        29.90F HX  82
BELLEVILLE     CLOUDY    82  68  62 VRB2      29.90F HX  85
CAHOKIA*       PTSUNNY   84  65  52 W5        29.89F HX  86
SPARTA*        CLOUDY    80  69  70 NW3       29.93S HX  82
$$

ILZ064>066-069>071-074>076-080>082-084>086-088>090-092>094-012100-
SOUTH-CENTRAL ILLINOIS

CITY           SKY/WX    TMP DP  RH WIND       PRES   REMARKS
CARBONDALE     CLOUDY    82  69  64 SW13      29.92R HX  85
CAIRO*         PTSUNNY   85  72  64 S15G22    29.89S HX  91
EFFINGHAM*     CLOUDY    83  62  47 SW18      29.90F HX  84
MARION         CLOUDY    84  70  61 SW16      29.93R HX  88
MT. VERNON     CLOUDY    82  70  65 SW12      29.92S HX  86
CENTRALIA*     CLOUDY    81  66  61 W8        29.92F HX  83
SALEM*         CLOUDY    82  69  66 W9        29.92F HX  85
METROPOLIS*    CLOUDY    84  73  67 S8G18     29.89F HX  90
$$

ILZ067-068-072-073-078-083-087-091-012100-
SOUTHEAST ILLINOIS

CITY           SKY/WX    TMP DP  RH WIND       PRES   REMARKS
LAWRENCEVILLE  CLOUDY    83  73  72 SW15      29.91R HX  89
FLORA*         CLOUDY    81  68  63 W12       29.92S HX  84
FAIRFIELD*     CLOUDY    84  75  74 SW9G16    29.91S HX  92
HARRISBURG*    CLOUDY    84  72  66 SW13      29.92R HX  90
ROBINSON*      CLOUDY    82  74  75 SW13      29.91R HX  88
CARMI*         CLOUDY    86  75  69 SW9       29.91R HX  96
$$

ABBREVIATIONS USED IN REMARKS
   TC - TEMPERATURE IN CELSIUS
  WCI - WIND CHILL INDEX
   HX - HEAT INDEX
  VSB - VISIBILITY
$$




USA.gov is the U.S. government's official web portal to all federal, state and local government web resources and services.